Location: Joplin, MO
(37.0842°N, 94.5133°W)
Time: 22:28:29
(UTC+02:00)

Transit 2A Rocket - Pass Details

Date: 27 March 2023
Orbit: 584 x 914 km, 66.7° (Epoch: 06 June)

Event Time Altitude Azimuth Distance (km) Brightness Sun altitude
Rises 20:35:10 0° 261° (W) 3,294 8.4 55.5°
Reaches altitude 10° 20:38:43 10° 285° (WNW) 2,437 7.7 55.5°
Maximum altitude 20:41:46 15° 318° (NW) 2,178 7.3 55.4°
Drops below altitude 10° 20:44:56 10° 351° (N) 2,538 7.5 55.3°
Sets 20:48:48 0° 14° (NNE) 3,523 8.1 55.1°
